When you browse on this site, cookies collect data to enhance your experience and personalize the content and advertising you see.
Visit our Privacy Policy to learn more. By continuing to use the site, you agree to this use of cookies and data.
  • en Suisse
  • Liste des pays
  • À 7 jours
  • Température de l'eau
  • Carte satellitaire
  • Carte météo
  • Widgets météo
  • user-avatar
    Se connecter

    Météo par heure à Talas

    Ce jour, 23 Janvier, Mercredi

    Heure Température Précipitation Vent Pression Humidité
    00:00 -10°C° 0 mm 2 m/s 592 mmHg 47%
    01:00 -10°C° 0 mm 2 m/s 592 mmHg 45%
    02:00 -10°C° 0 mm 2 m/s 592 mmHg 43%
    03:00 -10°C° 0 mm 2 m/s 592 mmHg 41%
    04:00 -10°C° 0 mm 2 m/s 592 mmHg 40%
    05:00 -12°C° 0 mm 2 m/s 592 mmHg 38%
    06:00 -12°C° 0 mm 2 m/s 593 mmHg 38%
    07:00 -12°C° 0 mm 2 m/s 593 mmHg 38%
    08:00 -10°C° 0 mm 2 m/s 593 mmHg 38%
    09:00 -9°C° 0 mm 2 m/s 594 mmHg 39%
    10:00 -6°C° 0 mm 1 m/s 594 mmHg 40%
    11:00 -3°C° 0 mm 1 m/s 595 mmHg 41%
    12:00 -3°C° 0 mm 1 m/s 595 mmHg 43%
    13:00 -3°C° 0 mm 1 m/s 595 mmHg 44%
    14:00 -3°C° 0 mm 1 m/s 596 mmHg 45%
    15:00 -4°C° 0 mm 1 m/s 595 mmHg 51%
    16:00 -7°C° 0 mm 1 m/s 594 mmHg 56%
    17:00 -8°C° 0 mm 1 m/s 594 mmHg 62%
    18:00 -8°C° 0 mm 1 m/s 594 mmHg 61%
    19:00 -8°C° 0 mm 1 m/s 594 mmHg 60%
    20:00 -9°C° 0 mm 2 m/s 595 mmHg 58%
    21:00 -9°C° 0 mm 2 m/s 595 mmHg 58%
    22:00 -9°C° 0 mm 2 m/s 595 mmHg 59%
    23:00 -9°C° 0 mm 2 m/s 595 mmHg 59%

    Demain, 24 Janvier, Jeudi

    Heure Température Précipitation Vent Pression Humidité
    00:00 -9°C° 0 mm 2 m/s 596 mmHg 59%
    01:00 -9°C° 0 mm 2 m/s 596 mmHg 59%
    02:00 -9°C° 0 mm 2 m/s 596 mmHg 60%
    03:00 -9°C° 0 mm 2 m/s 596 mmHg 60%
    04:00 -9°C° 0 mm 2 m/s 596 mmHg 60%
    05:00 -9°C° 0 mm 2 m/s 597 mmHg 61%
    06:00 -9°C° 0 mm 2 m/s 597 mmHg 62%
    07:00 -9°C° 0 mm 2 m/s 597 mmHg 62%
    08:00 -9°C° 0 mm 2 m/s 598 mmHg 63%
    09:00 -8°C° 0 mm 2 m/s 598 mmHg 63%
    10:00 -7°C° 0 mm 2 m/s 599 mmHg 62%
    11:00 -6°C° 0 mm 2 m/s 600 mmHg 62%
    12:00 -6°C° 0 mm 2 m/s 600 mmHg 62%
    13:00 -4°C° 0 mm 1 m/s 599 mmHg 62%
    14:00 -4°C° 0 mm 1 m/s 599 mmHg 62%
    15:00 -6°C° 0 mm 1 m/s 599 mmHg 65%
    16:00 -7°C° 0 mm 1 m/s 599 mmHg 69%
    17:00 -8°C° 0 mm 1 m/s 599 mmHg 73%
    18:00 -9°C° 0 mm 2 m/s 599 mmHg 72%
    19:00 -10°C° 0 mm 2 m/s 599 mmHg 71%
    20:00 -13°C° 0 mm 3 m/s 599 mmHg 69%
    21:00 -13°C° 0 mm 3 m/s 599 mmHg 68%
    22:00 -13°C° 0 mm 3 m/s 599 mmHg 67%
    23:00 -14°C° 0 mm 3 m/s 599 mmHg 66%

    Après-demain, 25 Janvier, Vendredi

    Heure Température Précipitation Vent Pression Humidité
    00:00 -14°C° 0 mm 3 m/s 599 mmHg 65%
    01:00 -14°C° 0 mm 3 m/s 599 mmHg 63%
    02:00 -14°C° 0 mm 3 m/s 599 mmHg 62%
    03:00 -14°C° 0 mm 3 m/s 599 mmHg 60%
    04:00 -14°C° 0 mm 3 m/s 598 mmHg 58%
    05:00 -14°C° 0 mm 3 m/s 598 mmHg 55%
    06:00 -14°C° 0 mm 3 m/s 598 mmHg 54%
    07:00 -13°C° 0 mm 3 m/s 598 mmHg 52%
    08:00 -13°C° 0 mm 3 m/s 598 mmHg 50%
    09:00 -10°C° 0 mm 3 m/s 599 mmHg 49%
    10:00 -8°C° 0 mm 3 m/s 600 mmHg 48%
    11:00 -5°C° 0 mm 2 m/s 600 mmHg 48%
    12:00 -5°C° 0 mm 2 m/s 600 mmHg 46%
    13:00 -4°C° 0 mm 2 m/s 599 mmHg 45%
    14:00 -2°C° 0 mm 1 m/s 599 mmHg 43%
    15:00 -4°C° 0 mm 1 m/s 598 mmHg 45%
    16:00 -7°C° 0 mm 2 m/s 598 mmHg 47%
    17:00 -9°C° 0 mm 2 m/s 597 mmHg 49%
    18:00 -9°C° 0 mm 2 m/s 597 mmHg 47%
    19:00 -12°C° 0 mm 3 m/s 597 mmHg 46%
    20:00 -12°C° 0 mm 3 m/s 597 mmHg 44%
    21:00 -12°C° 0 mm 4 m/s 596 mmHg 42%
    22:00 -12°C° 0 mm 4 m/s 596 mmHg 39%
    23:00 -12°C° 0 mm 4 m/s 596 mmHg 37%

    26 Janvier, Samedi

    Heure Température Précipitation Vent Pression Humidité
    00:00 -12°C° 0 mm 4 m/s 596 mmHg 36%
    01:00 -12°C° 0 mm 4 m/s 596 mmHg 35%
    02:00 -12°C° 0 mm 4 m/s 596 mmHg 34%
    03:00 -14°C° 0 mm 4 m/s 595 mmHg 33%
    04:00 -14°C° 0 mm 4 m/s 595 mmHg 32%
    05:00 -14°C° 0 mm 4 m/s 595 mmHg 31%
    06:00 -14°C° 0 mm 4 m/s 595 mmHg 31%
    07:00 -14°C° 0 mm 4 m/s 595 mmHg 31%
    08:00 -14°C° 0 mm 4 m/s 595 mmHg 31%
    09:00 -10°C° 0 mm 4 m/s 596 mmHg 36%
    10:00 -7°C° 0 mm 3 m/s 597 mmHg 40%
    11:00 -5°C° 0 mm 3 m/s 598 mmHg 44%
    12:00 -5°C° 0 mm 3 m/s 598 mmHg 43%
    13:00 -3°C° 0 mm 2 m/s 598 mmHg 42%
    14:00 -3°C° 0 mm 2 m/s 598 mmHg 41%
    15:00 -5°C° 0 mm 2 m/s 597 mmHg 43%
    16:00 -7°C° 0 mm 3 m/s 596 mmHg 45%
    17:00 -9°C° 0 mm 3 m/s 595 mmHg 47%
    18:00 -10°C° 0 mm 3 m/s 595 mmHg 43%
    19:00 -12°C° 0 mm 4 m/s 595 mmHg 39%
    20:00 -12°C° 0 mm 4 m/s 595 mmHg 35%
    21:00 -12°C° 0 mm 4 m/s 595 mmHg 35%
    22:00 -12°C° 0 mm 4 m/s 595 mmHg 34%
    23:00 -14°C° 0 mm 4 m/s 595 mmHg 34%

    27 Janvier, Dimanche

    Heure Température Précipitation Vent Pression Humidité
    00:00 -14°C° 0 mm 4 m/s 595 mmHg 34%
    01:00 -14°C° 0 mm 4 m/s 595 mmHg 34%
    02:00 -14°C° 0 mm 4 m/s 595 mmHg 34%
    03:00 -14°C° 0 mm 4 m/s 595 mmHg 33%
    04:00 -14°C° 0 mm 4 m/s 595 mmHg 32%
    05:00 -14°C° 0 mm 4 m/s 595 mmHg 31%
    06:00 -14°C° 0 mm 4 m/s 595 mmHg 31%
    07:00 -14°C° 0 mm 4 m/s 595 mmHg 32%
    08:00 -14°C° 0 mm 4 m/s 596 mmHg 32%
    09:00 -11°C° 0 mm 4 m/s 596 mmHg 35%
    10:00 -9°C° 0 mm 4 m/s 597 mmHg 39%
    11:00 -7°C° 0 mm 4 m/s 598 mmHg 42%
    12:00 -5°C° 0 mm 3 m/s 598 mmHg 43%
    13:00 -5°C° 0 mm 3 m/s 597 mmHg 44%
    14:00 -4°C° 0 mm 3 m/s 597 mmHg 44%
    15:00 -5°C° 0 mm 3 m/s 597 mmHg 48%
    16:00 -6°C° 0 mm 3 m/s 596 mmHg 52%
    17:00 -7°C° 0 mm 3 m/s 596 mmHg 56%
    18:00 -8°C° 0 mm 3 m/s 596 mmHg 55%
    19:00 -9°C° 0 mm 4 m/s 596 mmHg 55%
    20:00 -10°C° 0 mm 4 m/s 595 mmHg 54%
    21:00 -10°C° 0 mm 4 m/s 595 mmHg 55%
    22:00 -10°C° 0 mm 4 m/s 595 mmHg 57%
    23:00 -10°C° 0 mm 4 m/s 595 mmHg 58%

    28 Janvier, Lundi

    Heure Température Précipitation Vent Pression Humidité
    00:00 -10°C° 0 mm 4 m/s 595 mmHg 59%
    01:00 -10°C° 0 mm 4 m/s 595 mmHg 59%
    02:00 -10°C° 0 mm 4 m/s 595 mmHg 60%
    03:00 -10°C° 0 mm 4 m/s 595 mmHg 60%
    04:00 -10°C° 0 mm 4 m/s 594 mmHg 61%
    05:00 -11°C° 0 mm 5 m/s 594 mmHg 61%
    06:00 -10°C° 0 mm 5 m/s 595 mmHg 63%
    07:00 -10°C° 0 mm 5 m/s 595 mmHg 64%
    08:00 -10°C° 0 mm 5 m/s 595 mmHg 66%
    09:00 -8°C° 0 mm 5 m/s 595 mmHg 66%
    10:00 -6°C° 0 mm 5 m/s 595 mmHg 66%
    11:00 -5°C° 0 mm 5 m/s 596 mmHg 66%
    12:00 -5°C° 0 mm 6 m/s 595 mmHg 67%
    13:00 -4°C° 0 mm 6 m/s 595 mmHg 67%
    14:00 -4°C° 0 mm 6 m/s 595 mmHg 67%
    15:00 -5°C° 0.1 mm 6 m/s 594 mmHg 68%
    16:00 -5°C° 0.1 mm 6 m/s 594 mmHg 70%
    17:00 -6°C° 0.1 mm 6 m/s 593 mmHg 71%
    18:00 -6°C° 0.1 mm 6 m/s 593 mmHg 71%
    19:00 -6°C° 0.1 mm 6 m/s 593 mmHg 72%
    20:00 -6°C° 0.1 mm 6 m/s 593 mmHg 72%
    21:00 -6°C° 0.3 mm 6 m/s 593 mmHg 73%
    22:00 -6°C° 0.3 mm 6 m/s 592 mmHg 73%
    23:00 -5°C° 0.3 mm 6 m/s 592 mmHg 74%
    Voir plus